Location: ?????
(31.7405°N, 35.1927°E)
Time: 17:50:33
(UTC+00:00)

Meteor 2-3 Rocket - Pass Details

Date: 17 February 2020
Orbit: 842 x 885 km, 81.3° (Epoch: 31 March)

Event Time Altitude Azimuth Distance (km) Brightness Sun altitude
Rises 03:20:04 0° 343° (NNW) 3,463 6.7 -13.4°
Reaches altitude 10° 03:22:36 10° 337° (NNW) 2,528 5.9 -12.8°
Maximum altitude 03:28:00 44° 268° (W) 1,200 4.1 -11.7°
Drops below altitude 10° 03:33:26 10° 197° (SSW) 2,533 6.1 -10.5°
Sets 03:35:59 0° 191° (S) 3,471 6.9 -10.0°
